GW0525 Weather Reports


Display with metric or nautical units.
time (UTC)temp
F
wind
direction
speed
MPH
gust
MPH
rain 1hr
in
rain 24hr
in
rain mn
in
humidity
%
barometer
mb
20260902214608 86 171 18.0 26.0 0.00 0.00 0.00 39 1007.3
20260902213129 87 134 15.0 27.0 0.00 0.00 0.00 40 1007.3
20260902211606 86 152 16.0 30.0 0.00 0.00 0.00 40 1007.6
20260902210109 86 190 15.0 28.0 0.00 0.00 0.00 42 1007.7
20260902204606 85 161 18.0 28.0 0.00 0.00 0.00 42 1007.9
20260902203109 86 166 18.0 30.0 0.00 0.00 0.00 43 1008.1
20260902201608 85 134 16.0 25.0 0.00 0.00 0.00 46 1008.3
20260902200137 84 178 17.0 26.0 0.00 0.00 0.00 45 1008.4
20260902194611 84 162 14.0 33.0 0.00 0.00 0.00 47 1008.6
20260902193108 83 213 11.0 28.0 0.00 0.00 0.00 49 1008.8
20260902191614 82 173 13.0 28.0 0.00 0.00 0.00 53 1008.9
20260902190116 81 153 20.0 31.0 0.00 0.00 0.00 53 1009.2
20260902184606 80 155 16.0 32.0 0.00 0.00 0.00 55 1009.4
20260902183119 79 173 18.0 30.0 0.00 0.00 0.00 57 1009.6
20260902181606 78 167 19.0 27.0 0.00 0.00 0.00 59 1009.8
20260902180133 78 150 15.0 28.0 0.00 0.00 0.00 59 1009.9
20260902174614 78 148 18.0 26.0 0.00 0.00 0.00 59 1010.1
20260902173108 77 157 19.0 28.0 0.00 0.00 0.00 61 1010.3
20260902171609 76 168 18.0 30.0 0.00 0.00 0.00 63 1010.5
20260902170107 75 155 20.0 30.0 0.00 0.00 0.00 66 1010.6
20260902164607 74 159 16.0 26.0 0.00 0.00 0.00 68 1010.8
20260902163108 72 153 17.0 25.0 0.00 0.00 0.00 70 1010.9
20260902161607 71 173 14.0 28.0 0.00 0.00 0.00 68 1010.9
20260902160108 70 142 12.0 21.0 0.00 0.00 0.00 67 1011.0
20260902154616 69 182 14.0 20.0 0.00 0.00 0.00 65 1011.2
20260902153112 68 169 16.0 23.0 0.00 0.00 0.00 65 1011.3
20260902151606 67 175 15.0 22.0 0.00 0.00 0.00 65 1011.4
20260902150108 66 190 15.0 22.0 0.00 0.00 0.00 65 1011.6
20260902144603 66 168 14.0 20.0 0.00 0.00 0.00 65 1011.7
20260902143105 66 152 10.0 19.0 0.00 0.00 0.00 65 1011.6
20260902141612 64 155 10.0 14.0 0.00 0.00 0.00 68 1011.7
20260902140107 61 155 8.0 11.0 0.00 0.00 0.00 72 1011.7
20260902134605 59 158 8.0 11.0 0.00 0.00 0.00 75 1011.9
20260902133104 58 168 7.0 10.0 0.00 0.00 0.00 77 1012.0
20260902131608 57 155 8.0 10.0 0.00 0.00 0.00 80 1011.7
20260902130106 56 144 7.0 10.0 0.00 0.00 0.00 81 1011.7
20260902124603 55 143 8.0 11.0 0.00 0.00 0.00 83 1011.7
20260902123109 54 144 9.0 11.0 0.00 0.00 0.00 84 1011.6
20260902121606 54 136 7.0 9.0 0.00 0.00 0.00 83 1011.7
20260902120108 55 153 9.0 11.0 0.00 0.00 0.00 83 1011.7
20260902114604 55 153 9.0 12.0 0.00 0.00 0.00 83 1011.6
20260902113114 55 144 7.0 9.0 0.00 0.00 0.00 84 1011.6
20260902111605 55 0 2.0 7.0 0.00 0.00 0.00 83 1011.7
20260902110105 55 0 3.0 8.0 0.00 0.00 0.00 81 1011.9
20260902104604 56 144 6.0 8.0 0.00 0.00 0.00 81 1011.8
20260902103104 55 144 6.0 8.0 0.00 0.00 0.00 82 1011.8
20260902101623 55 134 6.0 8.0 0.00 0.00 0.00 81 1011.9
20260902100105 58 140 6.0 9.0 0.00 0.00 0.00 76 1012.0
20260902094606 59 158 7.0 11.0 0.00 0.00 0.00 75 1012.0
20260902093108 59 154 7.0 10.0 0.00 0.00 0.00 74 1012.1
20260902091605 59 157 6.0 10.0 0.00 0.00 0.00 74 1012.2
20260902090128 59 145 7.0 13.0 0.00 0.00 0.00 73 1012.2
20260902084607 59 157 7.0 11.0 0.00 0.00 0.00 73 1012.1
20260902083112 59 157 7.0 9.0 0.00 0.00 0.00 73 1012.3
20260902081608 60 154 7.0 10.0 0.00 0.00 0.00 71 1012.3
20260902080111 60 153 6.0 9.0 0.00 0.00 0.00 70 1012.4
20260902074608 61 155 6.0 10.0 0.00 0.00 0.00 68 1012.5
20260902073105 61 168 5.0 10.0 0.00 0.00 0.00 67 1012.5
20260902071602 61 169 6.0 11.0 0.00 0.00 0.00 66 1012.6
20260902070109 61 138 6.0 10.0 0.00 0.00 0.00 65 1012.7
20260902064608 62 142 5.0 9.0 0.00 0.00 0.00 64 1012.8
20260902063102 62 120 7.0 9.0 0.00 0.00 0.00 63 1012.8
20260902061625 63 136 7.0 9.0 0.00 0.00 0.00 61 1012.8
20260902060107 63 112 7.0 9.0 0.00 0.00 0.00 60 1012.8
20260902054606 64 123 5.0 8.0 0.00 0.00 0.00 57 1012.8
20260902053106 65 128 7.0 9.0 0.00 0.00 0.00 55 1012.8
20260902051604 66 132 7.0 10.0 0.00 0.00 0.00 54 1012.8
20260902050107 66 139 6.0 9.0 0.00 0.00 0.00 54 1012.7
20260902044608 66 123 6.0 8.0 0.00 0.00 0.00 53 1012.7
20260902043107 67 106 3.0 11.0 0.00 0.00 0.00 52 1012.8
20260902041609 67 161 6.0 12.0 0.00 0.00 0.00 52 1012.8
20260902040107 68 163 8.0 14.0 0.00 0.00 0.00 51 1012.5
20260902034604 68 185 7.0 11.0 0.00 0.00 0.00 50 1012.6
20260902033114 69 171 8.0 16.0 0.00 0.00 0.00 50 1012.5
20260902031605 69 177 7.0 12.0 0.00 0.00 0.00 49 1012.4
20260902030121 69 164 5.0 12.0 0.00 0.00 0.00 49 1012.3
20260902024613 70 208 7.0 14.0 0.00 0.00 0.00 49 1012.2
20260902023121 71 178 11.0 17.0 0.00 0.00 0.00 49 1012.1
20260902021621 72 166 8.0 15.0 0.00 0.00 0.00 48 1012.0
20260902020122 71 172 9.0 14.0 0.00 0.00 0.00 49 1011.9
20260902014605 73 143 6.0 9.0 0.00 0.00 0.00 45 1011.8
20260902013106 74 154 7.0 9.0 0.00 0.00 0.00 43 1011.8
20260902011605 75 153 6.0 11.0 0.00 0.00 0.00 41 1011.9
20260902010106 77 185 10.0 17.0 0.00 0.00 0.00 39 1012.0
20260902004614 78 181 12.0 19.0 0.00 0.00 0.00 38 1012.1
20260902003110 79 169 10.0 21.0 0.00 0.00 0.00 38 1012.0
20260902001604 79 169 12.0 18.0 0.00 0.00 0.00 38 1012.0
20260902000107 80 170 11.0 20.0 0.00 0.00 0.00 37 1011.9
20260901234617 81 199 12.0 20.0 0.00 0.00 0.00 35 1011.8
20260901233107 81 142 11.0 20.0 0.00 0.00 0.00 32 1012.1
20260901231606 81 153 11.0 18.0 0.00 0.00 0.00 31 1012.1
20260901230139 81 171 15.0 23.0 0.00 0.00 0.00 31 1012.2
20260901224604 81 152 16.0 23.0 0.00 0.00 0.00 31 1012.2
20260901223119 81 151 18.0 24.0 0.00 0.00 0.00 29 1012.4
20260901221606 81 162 15.0 23.0 0.00 0.00 0.00 28 1012.4
20260901220108 81 136 19.0 27.0 0.00 0.00 0.00 29 1012.7